Temperature
16 16 15 15 15 15 15 14 14 14 14 14 14 14 14 14 13 13 13 13 13 13 13 13 13 12 12 12 12 12 12 12 12 11 11 11 11 10 10 10 10 10 10
15 15 15 15 15 15 14 14 14 14 14 14 14 14 14 13 13 13 13 13 13 13 13 13 12 12 12 12 12 12 12 11 11 11 11 11 10 10 10 10 10 10 10
15 15 15 15 15 14 14 14 14 14 14 14 14 14 13 13 13 13 13 13 13 13 13 12 12 12 12 12 12 12 11 11 11 11 11 11 10 10 10 10 10 10 9
15 15 14 14 14 14 14 14 13 13 13 13 13 13 13 13 13 13 13 13 12 12 12 12 12 12 12 12 12 11 11 11 11 11 10 10 10 10 10 10 10 9 9
15 14 14 14 14 14 14 13 13 13 13 13 13 13 13 13 13 12 12 12 12 12 12 12 12 12 11 11 11 11 11 11 11 10 10 10 10 10 10 9 9 9 9
15 14 14 14 13 13 13 13 13 13 13 13 13 13 13 13 12 12 12 12 12 12 12 12 12 11 11 11 11 11 11 11 10 10 10 10 10 10 9 9 9 9 9
14 14 14 13 13 13 13 13 13 13 13 13 13 12 12 12 12 12 12 12 12 12 11 11 11 11 11 11 11 11 10 10 10 10 10 10 10 9 9 9 9 9 9
14 14 13 13 13 13 13 13 13 13 12 12 12 12 12 12 12 11 11 11 11 11 11 11 11 11 11 11 10 10 10 10 10 10 10 10 9 9 9 9 8 8 8
14 13 13 13 13 13 12 12 12 12 12 12 12 12 12 12 11 11 11 11 11 11 11 11 11 11 11 10 10 10 10 10 10 9 9 9 9 9 9 8 8 8 8
13 13 13 13 12 12 12 12 12 12 12 12 12 11 11 11 11 11 11 10 10 10 10 11 10 10 10 10 10 10 10 10 9 9 9 9 9 9 8 8 8 8 8
13 13 12 12 12 12 12 11 11 11 11 11 11 11 11 11 11 10 10 10 10 10 10 10 10 10 10 10 10 9 9 9 9 9 9 9 8 8 8 8 8 8 8
12 12 12 12 11 11 11 11 11 11 11 10 10 11 11 11 10 10 10 10 10 10 10 10 10 10 9 9 9 9 9 9 9 8 8 8 8 8 8 8 8 7 7
12 12 11 11 11 11 11 10 10 10 10 10 10 10 10 10 10 10 10 9 9 9 9 9 9 9 9 9 9 9 9 8 8 8 8 8 8 8 8 7 7 7 7
11 11 11 11 11 11 10 10 10 10 10 10 10 10 10 10 10 10 10 9 9 9 9 9 9 9 9 9 9 8 8 8 8 8 8 8 8 7 7 7 7 7 7
11 11 11 10 10 10 10 10 10 10 10 9 9 9 9 9 9 9 9 9 9 9 8 8 8 8 8 8 8 8 8 8 8 8 7 7 7 7 7 7 7 6 6
10 10 10 10 10 10 9 9 9 9 9 9 9 9 9 9 9 9 8 8 8 8 8 8 8 8 8 8 8 8 8 7 7 7 7 7 7 6 6 6 6 6 6
10 10 10 10 9 9 9 9 9 9 9 9 8 8 8 8 8 8 8 8 8 7 7 7 7 7 7 7 7 7 7 7 7 7 7 6 6 6 6 6 6 6 5
10 9 9 9 9 9 9 9 9 8 8 8 8 8 8 8 8 8 7 7 7 7 7 7 7 7 7 7 7 7 7 7 6 6 6 6 6 6 5 5 5 5 5
9 9 9 9 8 8 8 8 8 8 8 8 8 8 8 8 7 7 7 7 7 7 7 7 7 7 7 7 6 6 6 6 6 6 5 5 5 5 5 5 5 5 4
9 8 8 8 8 8 8 8 8 7 7 7 7 7 7 7 7 7 7 7 6 6 6 6 6 6 6 6 6 6 6 6 5 5 5 5 5 5 4 4 4 4 4
8 8 8 8 7 7 7 7 7 7 7 7 7 7 6 6 6 6 6 6 6 6 6 6 5 5 5 5 5 5 5 5 5 5 5 5 4 4 4 4 4 4 4
7 7 7 7 7 7 6 6 6 6 6 6 6 6 6 6 6 6 6 6 6 5 5 5 5 5 5 5 5 5 5 5 5 4 4 4 4 4 4 4 4 4 3
7 7 7 6 6 6 6 6 6 6 6 5 5 5 5 5 5 5 5 5 5 5 5 5 5 4 4 4 4 4 4 4 4 4 4 4 4 3 3 3 3 3 3
6 6 6 6 5 5 5 5 5 5 5 5 5 5 5 5 5 5 5 5 4 4 4 4 4 4 4 4 4 4 4 4 4 3 3 3 3 3 3 3 3 3 3
6 5 5 5 5 5 5 5 5 4 4 5 4 4 4 4 4 4 4 4 4 4 4 4 4 4 4 4 3 3 3 3 3 3 3 3 3 3 3 3 3 3 3
5 5 5 5 4 4 4 4 4 4 4 4 4 4 4 4 4 4 4 4 4 4 3 3 3 3 3 3 3 3 3 3 3 3 2 2 3 3 3 3 2 2 2
Wind_Speed
3 3 3 3 3 3 3 3 3 3 4 5 5 5 4 4 3 3 3 3 3 2 2 3 3 2 2 2 2 2 2 3 3 2 1 1 1 1 1 3 5 4 5
4 3 3 3 3 3 3 3 3 3 3 5 5 5 5 4 4 4 4 4 4 4 4 3 3 2 2 2 2 2 2 2 3 2 1 1 1 2 2 2 3 3 5
4 4 3 2 3 3 4 3 3 3 3 3 4 5 5 5 5 4 4 4 4 5 5 5 4 4 3 2 3 3 2 2 2 3 2 1 1 1 1 2 2 2 3
4 4 4 4 4 3 4 3 3 3 4 4 4 4 4 4 5 4 4 4 4 4 4 5 5 5 5 5 4 4 3 2 2 2 1 1 1 1 0 1 2 2 3
5 5 5 4 3 2 2 3 3 3 4 3 3 3 3 3 4 4 4 4 4 3 3 3 4 6 6 6 4 4 4 3 2 2 2 1 1 1 2 2 2 2 3
6 6 4 4 3 3 3 2 3 3 2 3 3 4 4 3 4 6 5 4 4 4 3 3 3 4 5 6 6 7 7 5 5 4 3 4 4 3 2 2 2 0 3
5 4 4 5 4 4 4 3 3 4 3 3 4 4 4 5 5 6 6 4 4 4 4 4 2 3 3 3 4 4 5 6 7 6 6 6 5 5 4 3 3 3 4
4 4 4 4 4 4 3 4 4 4 3 4 4 4 4 4 6 6 6 4 4 4 5 5 5 4 4 4 4 3 4 5 7 6 6 6 6 6 6 6 5 3 2
4 4 5 4 4 4 4 5 4 3 3 4 3 4 4 5 6 6 5 3 3 4 4 5 5 5 7 6 5 4 4 4 6 8 8 8 8 7 6 3 2 2 2
5 5 5 5 5 5 5 4 3 3 3 3 3 3 4 5 6 6 6 4 4 4 3 4 6 6 7 7 6 6 6 6 4 3 4 4 5 6 7 6 5 4 2
4 3 3 4 5 5 4 2 2 2 2 2 3 3 3 4 5 6 7 4 5 4 4 4 4 7 7 7 7 6 8 6 4 4 3 2 2 2 4 5 6 5 4
3 2 3 4 4 3 2 2 2 3 2 3 3 3 3 4 4 5 7 7 5 4 5 4 5 7 7 7 6 6 7 4 3 3 2 3 3 3 3 4 6 6 6
2 3 3 4 4 3 3 4 3 3 3 3 3 4 4 3 4 6 6 7 7 5 5 6 6 7 6 6 6 6 5 4 4 4 4 5 4 4 3 2 2 3 3
3 4 3 3 3 3 3 3 4 4 4 4 4 5 4 3 3 3 3 4 5 5 4 4 5 6 5 4 4 4 4 4 5 5 5 4 3 2 3 2 2 1 1
4 4 4 4 4 4 4 4 5 5 6 6 6 5 5 5 7 6 4 4 4 4 3 1 1 2 2 2 2 3 3 3 4 4 4 3 3 3 3 2 2 2 2
3 4 4 4 4 4 3 3 5 6 6 7 8 7 6 8 7 7 7 7 5 4 3 3 4 4 5 5 4 4 3 4 4 4 4 5 5 5 4 3 2 3 4
4 4 4 4 5 5 4 4 4 5 6 7 8 8 8 8 7 7 7 6 5 4 4 5 5 6 5 5 5 5 5 5 4 4 4 5 5 5 4 4 4 4 4
3 4 4 4 5 5 5 5 5 5 4 5 6 8 8 7 6 6 5 3 3 4 4 5 6 6 5 5 5 5 5 4 4 4 4 4 4 5 5 5 5 5 5
3 3 3 3 4 4 4 4 5 5 5 4 3 4 6 6 6 5 4 3 5 5 5 5 5 5 5 5 6 5 5 5 5 5 5 5 5 5 5 5 5 7 5
3 4 3 3 3 3 3 4 4 5 5 4 5 5 2 2 2 3 4 5 5 5 5 6 5 6 5 5 5 5 5 5 5 5 5 5 5 5 6 6 6 6 6
2 3 4 3 3 4 4 5 5 5 5 5 5 5 4 4 5 5 5 6 6 6 6 6 5 5 5 5 5 6 6 6 6 6 6 5 5 6 6 6 6 6 6
2 2 3 3 3 3 3 4 4 4 5 5 5 4 5 4 4 5 5 6 6 6 5 5 5 5 5 6 6 6 6 6 6 6 6 6 6 6 5 5 6 5 5
2 2 2 2 3 3 3 3 3 4 5 5 5 4 4 4 5 5 5 5 5 5 4 4 5 5 4 4 5 5 7 7 7 7 6 6 6 6 6 6 7 7 7
2 2 2 2 2 2 3 4 4 4 5 5 5 5 5 5 5 5 5 5 4 4 4 4 5 6 7 5 5 6 7 7 7 6 7 7 7 6 6 6 7 7 7
2 2 2 3 3 3 4 4 4 5 5 5 5 5 5 5 5 5 5 4 4 4 5 5 4 5 7 7 7 7 8 9 8 7 6 7 8 8 7 7 7 7 7
2 2 3 3 3 3 4 4 5 5 5 5 5 5 5 5 5 5 5 4 4 4 5 5 5 6 6 7 8 9 9 9 9 9 7 5 7 7 7 7 7 7 7
Wind_Direction
177 176 163 169 174 169 169 188 198 199 184 184 184 178 174 174 175 169 176 165 159 168 168 162 175 170 155 155 150 146 144 146 174 245 244 239 190 216 229 228 233 240 252
179 172 169 165 162 172 189 204 202 202 198 193 185 187 191 193 193 189 195 187 178 182 185 172 188 176 165 169 162 168 171 160 156 190 237 241 238 229 217 224 240 251 255
173 166 164 165 171 190 200 211 211 207 205 195 179 188 199 202 203 204 200 199 196 197 192 187 194 176 193 199 184 187 190 166 146 164 206 225 258 257 302 282 266 279 276
166 166 178 191 191 201 204 203 208 203 198 196 193 196 203 205 201 200 193 193 190 196 202 201 199 194 200 200 197 196 187 169 164 164 191 222 242 268 163 259 298 291 280
174 179 198 202 195 187 192 203 204 198 202 200 198 207 208 203 204 194 188 186 186 194 209 214 212 211 212 203 196 190 179 175 178 184 202 209 229 223 225 221 246 278 282
185 194 198 195 195 201 207 206 205 207 209 200 201 203 208 221 217 199 184 185 189 190 201 222 227 215 217 212 206 194 183 183 193 194 207 216 229 222 213 216 204 229 282
188 198 196 196 198 205 208 204 214 216 205 213 216 208 219 228 214 201 191 183 194 197 200 206 219 214 199 198 209 207 212 213 199 193 202 216 214 210 196 210 213 211 232
193 203 202 194 200 207 208 214 220 218 212 216 224 220 225 241 223 209 200 190 196 204 207 206 203 214 214 197 195 211 232 234 223 211 207 214 215 206 198 203 211 221 259
206 210 207 199 203 207 216 225 226 217 222 225 223 220 224 242 230 216 196 191 210 220 221 214 206 214 224 207 191 209 237 261 252 234 231 232 230 220 202 163 169 181 253
223 220 212 201 204 214 222 228 232 224 228 225 226 223 226 235 237 223 200 190 210 226 239 241 230 224 225 211 201 205 227 241 237 240 240 247 237 223 210 194 191 197 213
228 216 210 208 212 216 220 222 229 229 232 235 235 239 236 241 245 236 213 202 211 216 229 241 244 236 231 225 219 214 227 225 210 207 217 236 246 223 215 210 200 195 201
214 212 219 222 225 222 210 228 226 211 219 239 245 260 261 255 246 243 230 223 219 214 229 234 237 235 234 234 232 234 230 215 188 193 212 229 231 234 232 223 224 220 218
205 223 230 225 228 223 212 223 234 228 222 234 237 246 260 259 255 252 245 238 229 224 233 234 237 237 234 235 238 230 217 204 197 206 222 235 233 226 211 218 233 234 246
218 230 228 217 230 234 226 221 222 226 230 234 236 242 252 256 251 247 243 244 239 241 248 243 238 238 232 234 233 225 219 215 213 219 226 233 225 213 216 210 214 212 270
224 230 228 220 218 226 230 230 230 232 226 225 232 232 232 244 248 237 223 226 224 227 216 221 235 237 231 236 234 236 233 229 232 226 218 222 221 218 227 215 203 199 218
230 237 228 222 222 220 226 257 260 248 253 243 241 238 243 247 253 242 239 239 238 222 192 215 227 227 227 228 230 235 233 231 229 226 221 220 222 223 228 221 208 208 227
229 243 236 223 217 218 220 225 254 277 272 258 254 249 247 251 246 240 239 234 229 201 207 227 231 229 229 227 226 226 231 230 223 221 226 227 225 226 225 226 222 222 232
236 246 246 237 225 220 223 228 230 239 259 273 267 256 255 252 245 236 231 212 230 214 223 233 238 233 226 225 227 229 231 225 219 223 228 231 228 228 227 228 226 228 234
243 249 246 245 241 234 229 229 233 237 242 257 270 272 259 257 255 250 216 209 224 229 232 238 241 240 233 228 229 228 225 225 224 226 229 229 228 230 234 232 231 236 235
248 262 260 243 242 243 240 236 237 239 243 251 254 254 250 227 235 240 226 227 230 235 235 239 242 239 234 228 226 224 223 226 225 227 230 230 228 227 234 236 231 231 234
251 265 271 267 247 242 241 238 238 238 241 248 255 253 228 219 227 228 227 229 232 236 237 238 240 240 236 229 225 222 222 227 225 226 229 231 229 232 235 235 237 235 235
242 249 248 250 255 256 253 245 241 240 241 247 257 256 242 231 234 235 233 235 235 236 235 234 236 238 233 229 227 227 227 229 228 228 231 232 230 232 233 236 238 239 238
247 256 261 264 259 265 268 257 250 248 248 249 252 249 242 237 241 242 243 243 242 241 238 233 238 240 242 239 235 231 231 232 229 227 231 234 234 233 233 237 239 239 239
241 245 252 267 273 266 264 264 254 251 251 255 253 246 240 239 243 247 248 248 244 245 243 239 239 243 246 248 244 238 238 239 236 233 230 233 236 237 236 237 238 237 237
233 236 240 247 258 262 266 266 262 257 254 253 251 250 248 247 248 251 250 247 243 242 243 243 246 250 252 252 251 248 244 240 239 238 235 235 236 236 236 236 235 236 236
244 243 247 249 254 258 261 265 266 264 258 255 251 249 249 249 250 252 252 248 246 246 247 251 252 256 259 258 254 251 249 246 243 243 242 242 236 237 236 236 234 232 233
Height
1533 1533 1534 1535 1535 1536 1536 1537 1538 1538 1539 1539 1539 1539 1540 1540 1540 1541 1541 1541 1541 1541 1542 1542 1542 1542 1542 1542 1542 1542 1542 1542 1542 1542 1542 1542 1542 1541 1541 1540 1539 1538 1537
1531 1532 1532 1532 1533 1533 1534 1534 1535 1535 1536 1536 1537 1537 1537 1538 1538 1538 1539 1539 1539 1539 1539 1540 1540 1540 1540 1540 1540 1540 1540 1540 1540 1539 1539 1539 1539 1539 1538 1538 1537 1537 1536
1529 1529 1530 1530 1530 1530 1531 1532 1532 1532 1533 1534 1534 1534 1535 1535 1536 1536 1536 1536 1537 1537 1537 1537 1537 1537 1537 1538 1538 1538 1538 1537 1537 1537 1537 1537 1537 1537 1536 1535 1535 1534 1533
1526 1526 1527 1527 1527 1528 1528 1529 1529 1530 1530 1531 1531 1532 1532 1533 1533 1533 1534 1534 1534 1534 1535 1535 1535 1535 1535 1535 1535 1535 1535 1535 1535 1534 1534 1534 1534 1534 1533 1532 1532 1531 1531
1523 1523 1524 1524 1525 1525 1526 1526 1526 1527 1527 1528 1528 1528 1529 1529 1530 1530 1530 1531 1531 1531 1532 1532 1532 1532 1532 1532 1532 1532 1532 1532 1531 1531 1531 1531 1530 1530 1530 1529 1529 1528 1528
1520 1520 1521 1522 1522 1522 1523 1523 1524 1524 1524 1525 1525 1525 1525 1526 1526 1527 1527 1527 1528 1528 1528 1528 1529 1529 1529 1529 1529 1529 1529 1529 1528 1528 1528 1527 1527 1527 1527 1526 1526 1525 1524
1517 1517 1518 1519 1519 1520 1520 1520 1520 1520 1520 1521 1521 1521 1522 1522 1523 1523 1524 1524 1524 1524 1524 1525 1525 1525 1525 1525 1525 1525 1525 1525 1525 1525 1524 1524 1524 1524 1523 1523 1523 1522 1521
1514 1514 1515 1515 1516 1517 1517 1517 1517 1517 1517 1517 1517 1518 1518 1519 1519 1519 1520 1520 1520 1520 1521 1521 1521 1521 1521 1522 1521 1521 1521 1521 1521 1521 1521 1521 1521 1521 1520 1520 1519 1519 1518
1511 1511 1512 1512 1513 1513 1513 1513 1513 1513 1513 1513 1514 1514 1514 1514 1515 1515 1516 1516 1516 1516 1517 1517 1517 1517 1517 1518 1517 1517 1517 1517 1517 1517 1517 1517 1517 1517 1516 1516 1515 1515 1514
1508 1508 1509 1509 1509 1509 1509 1509 1509 1509 1509 1509 1509 1509 1510 1510 1511 1511 1512 1512 1512 1512 1512 1513 1513 1513 1513 1513 1513 1513 1512 1512 1512 1512 1512 1512 1512 1512 1512 1512 1511 1510 1510
1505 1505 1505 1505 1505 1505 1505 1505 1505 1505 1505 1505 1505 1505 1505 1506 1506 1506 1507 1507 1507 1507 1507 1507 1508 1508 1509 1509 1509 1508 1508 1508 1508 1508 1508 1508 1507 1507 1507 1507 1507 1506 1506
1501 1501 1501 1501 1501 1501 1501 1501 1501 1501 1501 1501 1501 1500 1501 1501 1501 1501 1502 1502 1502 1502 1502 1502 1502 1503 1504 1504 1504 1504 1504 1504 1503 1503 1502 1502 1502 1502 1502 1503 1502 1502 1502
1497 1497 1497 1497 1497 1497 1497 1497 1497 1497 1497 1496 1496 1496 1496 1496 1496 1497 1497 1497 1497 1497 1497 1497 1498 1498 1498 1498 1498 1498 1498 1498 1497 1497 1496 1497 1497 1497 1497 1497 1497 1497 1497
1493 1493 1493 1492 1493 1493 1493 1493 1493 1492 1492 1492 1492 1491 1491 1491 1491 1491 1492 1492 1492 1492 1492 1492 1492 1492 1492 1492 1493 1493 1492 1492 1492 1491 1491 1492 1492 1492 1491 1492 1492 1491 1491
1489 1488 1488 1488 1488 1488 1488 1488 1488 1488 1488 1488 1487 1487 1487 1486 1486 1487 1487 1486 1486 1487 1486 1486 1486 1486 1486 1486 1486 1487 1487 1486 1486 1486 1486 1486 1486 1486 1486 1486 1486 1486 1486
1484 1484 1483 1483 1483 1483 1483 1483 1483 1483 1483 1483 1483 1482 1482 1482 1482 1482 1482 1482 1482 1482 1481 1480 1480 1480 1480 1481 1481 1481 1481 1480 1480 1480 1480 1480 1480 1480 1480 1481 1481 1481 1481
1480 1480 1479 1478 1478 1478 1478 1478 1477 1478 1478 1477 1477 1477 1476 1476 1476 1476 1476 1476 1476 1476 1475 1475 1474 1474 1474 1474 1475 1475 1475 1475 1475 1474 1474 1474 1474 1475 1475 1475 1475 1475 1475
1476 1476 1475 1474 1473 1473 1473 1473 1472 1472 1471 1471 1471 1471 1471 1471 1471 1471 1471 1471 1470 1470 1469 1468 1468 1468 1468 1468 1468 1469 1469 1469 1469 1469 1469 1469 1469 1469 1469 1469 1470 1469 1469
1472 1471 1470 1469 1468 1468 1467 1467 1467 1466 1466 1465 1465 1465 1465 1465 1465 1465 1465 1464 1463 1463 1462 1462 1462 1462 1462 1462 1462 1462 1463 1463 1463 1463 1463 1463 1463 1464 1463 1464 1464 1464 1464
1467 1466 1465 1465 1464 1463 1462 1461 1461 1461 1460 1460 1459 1459 1459 1459 1458 1458 1458 1458 1457 1457 1456 1456 1456 1456 1456 1456 1456 1456 1456 1456 1457 1457 1457 1457 1457 1457 1457 1457 1458 1457 1457
1462 1461 1461 1460 1459 1458 1457 1457 1456 1456 1455 1454 1454 1454 1454 1453 1452 1452 1452 1451 1451 1451 1451 1450 1450 1450 1450 1450 1450 1449 1449 1450 1450 1450 1450 1450 1451 1451 1451 1451 1451 1451 1451
1458 1457 1456 1455 1454 1453 1452 1452 1451 1450 1449 1449 1448 1448 1448 1447 1447 1447 1446 1446 1445 1445 1445 1444 1444 1444 1444 1444 1443 1443 1443 1443 1443 1443 1443 1444 1444 1445 1445 1445 1445 1445 1445
1453 1452 1451 1450 1449 1448 1447 1446 1446 1445 1444 1444 1443 1442 1442 1441 1441 1441 1440 1440 1440 1439 1439 1438 1438 1437 1437 1437 1437 1437 1436 1436 1437 1437 1437 1437 1438 1438 1438 1438 1438 1438 1438
1449 1447 1446 1445 1444 1443 1442 1441 1440 1439 1438 1438 1437 1437 1436 1436 1435 1435 1434 1434 1433 1433 1433 1432 1431 1431 1431 1430 1430 1430 1430 1430 1430 1430 1430 1431 1431 1431 1431 1432 1432 1432 1432
1444 1443 1442 1441 1440 1438 1437 1436 1435 1434 1433 1432 1431 1431 1430 1430 1429 1429 1428 1428 1427 1427 1426 1426 1425 1425 1424 1424 1423 1423 1423 1423 1424 1424 1424 1424 1424 1424 1424 1424 1425 1425 1425
1439 1438 1437 1436 1435 1434 1432 1431 1429 1428 1427 1427 1426 1425 1425 1424 1424 1423 1423 1422 1421 1421 1420 1419 1419 1418 1418 1417 1417 1416 1416 1416 1417 1417 1417 1417 1417 1417 1417 1417 1418 1418 1418